User: anonymous   Login
Location: Unspecified
(0.0000°N, 0.0000°E)
Time: 09:20:05
(UTC+00:00)
Language:

SOMP - Orbit

View from above orbital plane
View from above orbital plane
View from above satellite
View from above satellite

Ground track
Ground track

The orbit data is extracted from the following two-line orbital elements,

1 39135U 13015F   19345.82181445  .00000559  00000-0  36988-4 0  9993
2 39135  64.8651 190.4524 0042404 277.6226  82.0085 15.17782224366977
Epoch (UTC): 11 December 2019 19:43:24
Eccentricity: 0.0042404
inclination: 64.8651°
perigee height: 483 km
apogee height: 542 km
right ascension of ascending node: 190.4524°
argument of perigee: 277.6226°
revolutions per day: 15.17782224
mean anomaly at epoch: 82.0085°
orbit number at epoch: 36697

The dashed part of the orbit path shows where the satellite is in the earth's shadow,  

DLR